Time,TemperatureF,DewpointF,PressureIn,WindDirection,WindDirectionDegrees,WindSpeedMPH,WindSpeedGustMPH,Humidity,HourlyPrecipIn,Conditions,Clouds,dailyrainin,SoftwareType,DateUTC
2013-08-03 00:06:00,74.8,64.0,30.07,East,96,2.0,3.0,70,0.00,,,0.00,weatherlink.com 1.10,2013-08-03 04:06:00,
2013-08-03 00:21:00,74.9,63.0,30.07,East,94,2.0,3.0,67,0.00,,,0.00,weatherlink.com 1.10,2013-08-03 04:21:00,
2013-08-03 00:36:00,74.5,63.0,30.07,ESE,103,1.0,3.0,68,0.00,,,0.00,weatherlink.com 1.10,2013-08-03 04:36:00,
2013-08-03 00:51:00,73.7,63.0,30.07,East,91,0.0,2.0,70,0.00,,,0.00,weatherlink.com 1.10,2013-08-03 04:51:00,
2013-08-03 01:06:00,73.2,65.0,30.07,East,98,1.0,2.0,76,0.00,,,0.00,weatherlink.com 1.10,2013-08-03 05:06:00,
2013-08-03 01:21:00,73.1,64.0,30.07,East,96,1.0,3.0,74,0.00,,,0.00,weatherlink.com 1.10,2013-08-03 05:21:00,
2013-08-03 01:36:00,72.2,65.0,30.07,ENE,68,0.0,1.0,77,0.00,,,0.00,weatherlink.com 1.10,2013-08-03 05:36:00,
2013-08-03 02:06:00,71.1,64.0,30.07,NNW,342,1.0,1.0,79,0.00,,,0.00,weatherlink.com 1.10,2013-08-03 06:06:00,
2013-08-03 02:21:00,72.0,64.0,30.05,East,87,0.0,3.0,75,0.00,,,0.00,weatherlink.com 1.10,2013-08-03 06:21:00,
2013-08-03 02:36:00,71.3,64.0,30.05,NE,34,0.0,1.0,77,0.00,,,0.00,weatherlink.com 1.10,2013-08-03 06:36:00,
2013-08-03 02:51:00,71.0,64.0,30.05,NNW,342,1.0,1.0,78,0.00,,,0.00,weatherlink.com 1.10,2013-08-03 06:51:00,
2013-08-03 03:06:00,70.2,64.0,30.06,NW,310,1.0,2.0,80,0.00,,,0.00,weatherlink.com 1.10,2013-08-03 07:06:00,
2013-08-03 03:21:00,70.6,64.0,30.06,SE,141,0.0,1.0,79,0.00,,,0.00,weatherlink.com 1.10,2013-08-03 07:21:00,
2013-08-03 03:51:00,69.9,65.0,30.05,SSE,165,0.0,0.0,83,0.00,,,0.00,weatherlink.com 1.10,2013-08-03 07:51:00,
2013-08-03 04:06:00,69.8,64.0,30.06,SSE,165,0.0,0.0,83,0.00,,,0.00,weatherlink.com 1.10,2013-08-03 08:06:00,
2013-08-03 04:21:00,69.7,64.0,30.06,NW,326,0.0,1.0,82,0.00,,,0.00,weatherlink.com 1.10,2013-08-03 08:21:00,
2013-08-03 04:36:00,69.3,64.0,30.06,NW,325,0.0,2.0,83,0.00,,,0.00,weatherlink.com 1.10,2013-08-03 08:36:00,
2013-08-03 04:51:00,69.8,64.0,30.06,NW,325,0.0,1.0,82,0.00,,,0.00,weatherlink.com 1.10,2013-08-03 08:51:00,
2013-08-03 05:06:00,70.1,65.0,30.05,NW,325,0.0,0.0,83,0.00,,,0.00,weatherlink.com 1.10,2013-08-03 09:06:00,
2013-08-03 05:22:00,69.9,65.0,30.06,NW,325,0.0,0.0,84,0.00,,,0.00,weatherlink.com 1.10,2013-08-03 09:22:00,
2013-08-03 05:36:00,69.8,65.0,30.06,SE,124,2.0,2.0,84,0.00,,,0.00,weatherlink.com 1.10,2013-08-03 09:36:00,
2013-08-03 05:51:00,70.5,64.0,30.06,East,91,0.0,4.0,81,0.00,,,0.00,weatherlink.com 1.10,2013-08-03 09:51:00,
2013-08-03 06:06:00,70.2,64.0,30.07,East,89,0.0,2.0,81,0.00,,,0.00,weatherlink.com 1.10,2013-08-03 10:06:00,
2013-08-03 06:37:00,69.8,64.0,30.07,East,89,2.0,2.0,81,0.00,,,0.00,weatherlink.com 1.10,2013-08-03 10:37:00,
2013-08-03 06:52:00,69.5,64.0,30.07,East,82,0.0,2.0,83,0.00,,,0.00,weatherlink.com 1.10,2013-08-03 10:52:00,
2013-08-03 07:07:00,68.9,64.0,30.07,ESE,102,2.0,4.0,84,0.00,,,0.00,weatherlink.com 1.10,2013-08-03 11:07:00,
2013-08-03 07:22:00,68.4,63.0,30.07,East,92,1.0,3.0,84,0.00,,,0.00,weatherlink.com 1.10,2013-08-03 11:22:00,
2013-08-03 07:36:00,69.0,64.0,30.07,ESE,118,3.0,4.0,85,0.00,,,0.00,weatherlink.com 1.10,2013-08-03 11:36:00,
2013-08-03 07:52:00,69.6,65.0,30.08,East,97,2.0,3.0,86,0.00,,,0.00,weatherlink.com 1.10,2013-08-03 11:52:00,
2013-08-03 08:07:00,70.0,66.0,30.08,SE,130,3.0,4.0,86,0.00,,,0.00,weatherlink.com 1.10,2013-08-03 12:07:00,
2013-08-03 08:22:00,71.1,66.0,30.08,SSE,165,0.0,3.0,84,0.00,,,0.00,weatherlink.com 1.10,2013-08-03 12:22:00,
2013-08-03 08:37:00,71.7,66.0,30.08,SE,131,0.0,1.0,83,0.00,,,0.00,weatherlink.com 1.10,2013-08-03 12:37:00,
2013-08-03 08:52:00,72.9,67.0,30.08,ESE,117,1.0,2.0,82,0.00,,,0.00,weatherlink.com 1.10,2013-08-03 12:52:00,
2013-08-03 09:07:00,74.8,68.0,30.08,South,189,0.0,3.0,78,0.00,,,0.00,weatherlink.com 1.10,2013-08-03 13:07:00,
2013-08-03 09:22:00,75.8,68.0,30.08,WSW,243,0.0,2.0,77,0.00,,,0.00,weatherlink.com 1.10,2013-08-03 13:22:00,
2013-08-03 09:37:00,78.3,68.0,30.08,SSE,167,1.0,4.0,71,0.00,,,0.00,weatherlink.com 1.10,2013-08-03 13:37:00,
2013-08-03 09:52:00,78.4,69.0,30.08,East,88,2.0,7.0,72,0.00,,,0.00,weatherlink.com 1.10,2013-08-03 13:52:00,
2013-08-03 10:07:00,78.1,69.0,30.08,SW,232,0.0,7.0,73,0.00,,,0.00,weatherlink.com 1.10,2013-08-03 14:07:00,
2013-08-03 10:22:00,79.2,70.0,30.08,ENE,78,3.0,9.0,73,0.00,,,0.00,weatherlink.com 1.10,2013-08-03 14:22:00,
2013-08-03 10:37:00,79.7,70.0,30.07,SSW,202,7.0,7.0,72,0.00,,,0.00,weatherlink.com 1.10,2013-08-03 14:37:00,
2013-08-03 10:52:00,79.3,70.0,30.07,SE,143,1.0,9.0,72,0.00,,,0.00,weatherlink.com 1.10,2013-08-03 14:52:00,
2013-08-03 11:07:00,80.3,71.0,30.07,WSW,248,2.0,8.0,72,0.00,,,0.00,weatherlink.com 1.10,2013-08-03 15:07:00,
2013-08-03 11:22:00,81.1,69.0,30.07,SW,229,2.0,8.0,67,0.00,,,0.00,weatherlink.com 1.10,2013-08-03 15:22:00,
2013-08-03 11:37:00,80.8,68.0,30.07,SSE,160,5.0,11.0,66,0.00,,,0.00,weatherlink.com 1.10,2013-08-03 15:37:00,
2013-08-03 11:51:00,80.2,68.0,30.08,NW,311,0.0,9.0,67,0.00,,,0.00,weatherlink.com 1.10,2013-08-03 15:51:00,
2013-08-03 12:07:00,80.7,69.0,30.08,West,260,2.0,10.0,68,0.00,,,0.00,weatherlink.com 1.10,2013-08-03 16:07:00,
2013-08-03 12:22:00,80.7,69.0,30.08,SW,233,8.0,10.0,67,0.00,,,0.00,weatherlink.com 1.10,2013-08-03 16:22:00,
2013-08-03 12:37:00,81.7,67.0,30.08,SW,235,7.0,14.0,61,0.00,,,0.00,weatherlink.com 1.10,2013-08-03 16:37:00,
2013-08-03 12:52:00,81.4,66.0,30.08,WNW,296,11.0,15.0,60,0.00,,,0.00,weatherlink.com 1.10,2013-08-03 16:52:00,
2013-08-03 13:07:00,81.4,66.0,30.08,WSW,246,8.0,11.0,59,0.00,,,0.00,weatherlink.com 1.10,2013-08-03 17:07:00,
2013-08-03 13:22:00,81.0,67.0,30.08,West,264,7.0,11.0,62,0.00,,,0.00,weatherlink.com 1.10,2013-08-03 17:22:00,
2013-08-03 13:37:00,82.2,67.0,30.08,NNW,327,0.0,7.0,61,0.00,,,0.00,weatherlink.com 1.10,2013-08-03 17:37:00,
2013-08-03 13:52:00,81.8,65.0,30.08,WNW,286,6.0,-999.0,58,-99.99,,,0.00,weatherlink.com 1.10,2013-08-03 17:52:00,
2013-08-03 14:07:00,84.2,67.0,30.07,NW,307,7.0,13.0,57,0.00,,,0.00,weatherlink.com 1.10,2013-08-03 18:07:00,
2013-08-03 14:22:00,81.5,67.0,30.07,WNW,297,12.0,17.0,62,0.00,,,0.00,weatherlink.com 1.10,2013-08-03 18:22:00,
2013-08-03 14:37:00,81.4,68.0,30.07,NW,307,7.0,14.0,64,0.00,,,0.00,weatherlink.com 1.10,2013-08-03 18:37:00,
2013-08-03 14:52:00,80.9,67.0,30.07,WNW,288,11.0,16.0,63,0.00,,,0.00,weatherlink.com 1.10,2013-08-03 18:52:00,
2013-08-03 15:07:00,80.5,68.0,30.07,West,277,8.0,11.0,66,0.00,,,0.00,weatherlink.com 1.10,2013-08-03 19:07:00,
2013-08-03 15:22:00,80.3,68.0,30.07,NW,319,8.0,12.0,67,0.00,,,0.00,weatherlink.com 1.10,2013-08-03 19:22:00,
2013-08-03 15:37:00,81.0,69.0,30.06,WNW,289,6.0,11.0,66,0.00,,,0.00,weatherlink.com 1.10,2013-08-03 19:37:00,
2013-08-03 15:52:00,82.0,70.0,30.05,WNW,287,1.0,11.0,68,0.00,,,0.00,weatherlink.com 1.10,2013-08-03 19:52:00,
2013-08-03 16:07:00,82.6,70.0,30.05,West,259,8.0,12.0,65,0.00,,,0.00,weatherlink.com 1.10,2013-08-03 20:07:00,
2013-08-03 16:22:00,81.5,69.0,30.05,WNW,297,6.0,14.0,66,0.00,,,0.00,weatherlink.com 1.10,2013-08-03 20:22:00,
2013-08-03 16:37:00,81.5,70.0,30.05,West,271,3.0,13.0,68,0.00,,,0.00,weatherlink.com 1.10,2013-08-03 20:37:00,
2013-08-03 16:52:00,80.9,69.0,30.05,NW,314,5.0,13.0,67,0.00,,,0.00,weatherlink.com 1.10,2013-08-03 20:52:00,
2013-08-03 17:07:00,80.6,69.0,30.04,NNW,338,2.0,11.0,68,0.00,,,0.00,weatherlink.com 1.10,2013-08-03 21:07:00,
2013-08-03 17:22:00,80.5,69.0,30.04,SW,232,0.0,10.0,69,0.00,,,0.00,weatherlink.com 1.10,2013-08-03 21:22:00,
2013-08-03 17:37:00,80.1,70.0,30.04,WSW,238,6.0,10.0,70,0.00,,,0.00,weatherlink.com 1.10,2013-08-03 21:37:00,
2013-08-03 17:52:00,80.3,70.0,30.04,WSW,258,5.0,9.0,70,0.00,,,0.00,weatherlink.com 1.10,2013-08-03 21:52:00,
2013-08-03 18:07:00,80.1,70.0,30.03,WNW,300,2.0,10.0,71,0.00,,,0.00,weatherlink.com 1.10,2013-08-03 22:07:00,
2013-08-03 18:23:00,80.2,70.0,30.03,WSW,246,2.0,6.0,71,0.00,,,0.00,weatherlink.com 1.10,2013-08-03 22:23:00,
2013-08-03 18:38:00,81.0,70.0,30.02,WSW,258,6.0,9.0,70,0.00,,,0.00,weatherlink.com 1.10,2013-08-03 22:38:00,
2013-08-03 18:53:00,80.8,70.0,30.02,WSW,246,6.0,6.0,70,0.00,,,0.00,weatherlink.com 1.10,2013-08-03 22:53:00,
2013-08-03 19:08:00,80.6,70.0,30.02,SSW,206,6.0,8.0,69,0.00,,,0.00,weatherlink.com 1.10,2013-08-03 23:08:00,
2013-08-03 19:22:00,80.4,69.0,30.02,SW,225,6.0,7.0,69,0.00,,,0.00,weatherlink.com 1.10,2013-08-03 23:22:00,
2013-08-03 19:38:00,80.1,70.0,30.02,WSW,242,8.0,10.0,71,0.00,,,0.00,weatherlink.com 1.10,2013-08-03 23:38:00,
2013-08-03 19:53:00,79.2,71.0,30.03,SW,214,6.0,11.0,76,0.00,,,0.00,weatherlink.com 1.10,2013-08-03 23:53:00,
2013-08-03 20:08:00,78.6,71.0,30.03,SSW,209,6.0,11.0,78,0.00,,,0.00,weatherlink.com 1.10,2013-08-04 00:08:00,
2013-08-03 20:23:00,78.4,71.0,30.03,West,267,4.0,10.0,79,0.00,,,0.00,weatherlink.com 1.10,2013-08-04 00:23:00,
2013-08-03 20:38:00,78.0,71.0,30.04,SW,233,10.0,10.0,80,0.00,,,0.00,weatherlink.com 1.10,2013-08-04 00:38:00,
2013-08-03 20:53:00,77.7,72.0,30.04,SSW,197,5.0,9.0,82,0.00,,,0.00,weatherlink.com 1.10,2013-08-04 00:53:00,
2013-08-03 21:08:00,77.5,72.0,30.04,SW,221,8.0,11.0,82,0.00,,,0.00,weatherlink.com 1.10,2013-08-04 01:08:00,
2013-08-03 21:23:00,77.1,72.0,30.04,WSW,245,4.0,13.0,83,0.00,,,0.00,weatherlink.com 1.10,2013-08-04 01:23:00,
2013-08-03 21:38:00,76.8,72.0,30.04,SE,145,5.0,10.0,84,0.00,,,0.00,weatherlink.com 1.10,2013-08-04 01:38:00,
2013-08-03 21:53:00,76.3,72.0,30.05,SSW,211,4.0,6.0,85,0.00,,,0.00,weatherlink.com 1.10,2013-08-04 01:53:00,
2013-08-03 22:08:00,76.1,72.0,30.05,SW,230,8.0,10.0,86,0.00,,,0.00,weatherlink.com 1.10,2013-08-04 02:08:00,
2013-08-03 22:23:00,76.0,72.0,30.05,SW,224,8.0,12.0,86,0.00,,,0.00,weatherlink.com 1.10,2013-08-04 02:23:00,
2013-08-03 22:38:00,75.9,72.0,30.05,West,266,6.0,13.0,86,0.00,,,0.00,weatherlink.com 1.10,2013-08-04 02:38:00,
2013-08-03 22:53:00,75.7,72.0,30.06,WNW,300,6.0,12.0,87,0.00,,,0.00,weatherlink.com 1.10,2013-08-04 02:53:00,
2013-08-03 23:08:00,75.6,72.0,30.06,WNW,294,10.0,14.0,87,0.00,,,0.00,weatherlink.com 1.10,2013-08-04 03:08:00,
2013-08-03 23:23:00,75.5,71.0,30.05,SW,224,8.0,13.0,87,0.00,,,0.00,weatherlink.com 1.10,2013-08-04 03:23:00,
2013-08-03 23:38:00,75.3,71.0,30.06,SSW,201,2.0,11.0,87,0.00,,,0.00,weatherlink.com 1.10,2013-08-04 03:38:00,
2013-08-03 23:53:00,75.0,71.0,30.06,WNW,288,4.0,7.0,88,0.00,,,0.00,weatherlink.com 1.10,2013-08-04 03:53:00,